Weather History for Jaipur / Sanganer, India

Change the Weather History Date:

Tuesday, October 9, 2012

  Actual Average Record
Temperature  
Mean Temperature 83 °F -  
Max Temperature 96 °F - - ()
Min Temperature 70 °F - - ()
Cooling Degree Days 18    
Growing Degree Days 33 (Base 50)    
Moisture  
Dew Point 60 °F    
Average Humidity 47    
Maximum Humidity 69    
Minimum Humidity 20    
Precipitation  
Precipitation 0.00 in - - ()
Sea Level Pressure  
Sea Level Pressure 29.85 in    
Wind  
Wind Speed 2 mph ()    
Max Wind Speed 7 mph    
Max Gust Speed -    
Visibility 1.9 miles    
Events      
T = Trace of Precipitation, MM = Missing Value Source: Averaged Metar Reports

Daily Weather History Graph

Daily Weather History Graph

Search for Another Location

Airport:

Trip Planner

Search our weather history database for the weather conditions in past years. The results will help you decide how hot, cold, wet, or windy it might be!

Date:

Astronomy

Oct. 09, 2012 Rise Set
Actual Time 6:23 AM IST 6:04 PM IST
Civil Twilight 5:59 AM IST 6:27 PM IST
Nautical Twilight 5:32 AM IST 6:54 PM IST
Astronomical Twilight 5:06 AM IST 7:21 PM IST
Moon No Moon Rise 1:43 PM IST (10/9)
Length of Visible Light 12h 27m
Length of Day
11h 41m
Last Quarter, 41% of the Moon is Illuminated
Oct 9
Last Quarter
Oct 15
New
Oct 22
First Quarter
Oct 30
Full
Nov 7
Last Quarter

Hourly Weather History & Observations

Time (IST) Temp. Heat Index Dew Point Humidity Pressure Visibility Wind Dir Wind Speed Gust Speed Precip Events Conditions
12:00 AM 78.8 °F - 60.8 °F 54% 29.89 in 1.9 mi ENE 4.6 mph - N/A   Haze
1:00 AM 77.0 °F - 60.8 °F 57% 29.89 in 1.9 mi East 4.6 mph - N/A   Haze
2:00 AM - - - N/A% 29.86 in 1.9 mi Calm Calm - N/A   Haze
2:30 AM 75 °F - 60 °F 50% 29.80 in 1 mi Calm Calm - -   Haze
2:30 AM 75.2 °F - 60.8 °F 61% 29.86 in 1.9 mi Calm Calm - N/A   Haze
3:00 AM 75.2 °F - 60.8 °F 61% 29.86 in 1.9 mi Variable 2.3 mph - N/A   Haze
4:00 AM 73.4 °F - 60.8 °F 65% 29.86 in 1.9 mi Calm Calm - N/A   Haze
5:00 AM 71.6 °F - 60.8 °F 69% 29.86 in 1.9 mi Calm Calm - N/A   Haze
5:30 AM 73 °F - 59 °F 53% 29.81 in 1 mi Calm Calm - -   Haze
5:30 AM 71.6 °F - 60.8 °F 69% 29.86 in 1.9 mi Calm Calm - N/A   Haze
6:00 AM 71.6 °F - 59.0 °F 64% 29.89 in 1.9 mi Calm Calm - N/A   Haze
7:00 AM 71.6 °F - 59.0 °F 64% 29.89 in 1.9 mi Calm Calm - N/A   Haze
8:00 AM 77.0 °F - 59.0 °F 54% 29.92 in 1.9 mi Calm Calm - N/A   Haze
8:30 AM 78 °F - 60 °F 44% 29.83 in 1 mi Calm Calm - -   Haze
9:00 AM 82.4 °F 82.5 °F 59.0 °F 45% 29.92 in 1.9 mi Calm Calm - N/A   Haze
10:30 AM 87.8 °F 86.5 °F 57.2 °F 35% 29.92 in 1.9 mi ESE 6.9 mph - N/A   Haze
11:00 AM 87.8 °F 86.5 °F 57.2 °F 35% 29.92 in 2.5 mi SE 4.6 mph - N/A   Haze
11:30 AM 90 °F - 57 °F 23% 29.81 in 2 mi SE 5.8 mph - -   Haze
12:00 PM 91.4 °F 89.9 °F 57.2 °F 31% 29.89 in 2.5 mi Variable 3.5 mph - N/A   Haze
12:30 PM 91.4 °F 89.9 °F 57.2 °F 31% 29.86 in 2.5 mi SW 5.8 mph - N/A   Haze
1:00 PM 91.4 °F 89.9 °F 57.2 °F 31% 29.86 in 2.5 mi Variable 4.6 mph - N/A   Haze
2:30 PM 93 °F - 57 °F 20% 29.72 in 2 mi NW 4.6 mph - -   Haze
4:00 PM 93.2 °F 91.9 °F 57.2 °F 30% 29.80 in 3.1 mi Variable 3.5 mph - N/A   Haze
5:30 PM 89 °F - 60 °F 27% 29.72 in 2 mi East 3.5 mph - -   Haze
8:00 PM 84.2 °F 84.4 °F 60.8 °F 45% 29.83 in 1.9 mi Calm Calm - N/A   Haze
8:30 PM 83 °F - 65 °F 45% 29.75 in 1 mi Calm Calm - -   Haze
9:00 PM 82.4 °F 82.9 °F 60.8 °F 48% 29.86 in 1.9 mi Calm Calm - N/A   Haze
10:00 PM 80.6 °F 81.8 °F 62.6 °F 54% 29.86 in 1.6 mi Calm Calm - N/A   Haze
11:00 PM 80.6 °F 81.8 °F 62.6 °F 54% 29.86 in 1.6 mi NNE 3.5 mph - N/A   Haze
11:30 PM 80 °F - 64 °F 48% 29.79 in 1 mi NE 5.8 mph - -   Haze